{"data":{"norad_id":58542,"epoch":"2026-05-25T03:49:27.691392Z","epoch_age_seconds":75370,"freshness":"FRESH","line1":"1 58542U 23192M   26145.15934828  .00001744  00000+0  62759-4 0  9997","line2":"2 58542  53.1612  66.8088 0001384  91.8232 268.2929 15.34394460137706","mean_motion":15.3439446,"eccentricity":0.0001384,"inclination_deg":53.1612,"raan_deg":66.8088,"arg_perigee_deg":91.8232,"mean_anomaly_deg":268.2929,"bstar":6.2759e-5,"rev_number":13770,"period_min":93.848096922873,"perigee_km":461.772931736,"apogee_km":463.6664808723,"semimajor_km":6840.8567063041,"source":"CELESTRAK","updated_at":"2026-05-25T13:38:18.662652Z"}}